Location: Moy Burn
(57.3833°N, 4.0667°W)
Time: 11:27:46
(UTC+00:00)

Cosmos 2061 Rocket - Pass Details

Date: 08 August 2020
Orbit: 966 x 1012 km, 82.9° (Epoch: 21 September)

Event Time Altitude Azimuth Distance (km) Brightness Sun altitude
Exits shadow 22:41:21 19° 161° (SSE) 2,114 5.1 -13.9°
Maximum altitude 22:45:38 53° 92° (E) 1,186 4.3 -14.2°
Drops below altitude 10° 22:51:38 10° 18° (NNE) 2,722 7.1 -14.5°
Sets 22:54:12 0° 14° (NNE) 3,673 8.0 -14.6°
